Time,TemperatureF,DewpointF,PressureIn,WindDirection,WindDirectionDegrees,WindSpeedMPH,WindSpeedGustMPH,Humidity,HourlyPrecipIn,Conditions,Clouds,dailyrainin,SolarRadiationWatts/m^2,SoftwareType,DateUTC
2013-10-06 00:09:00,57.3,22.0,30.04,North,355,1.0,6.0,25,0.00,,,0.00,0,weatherlink.com 1.10,2013-10-06 06:09:00,
2013-10-06 00:24:00,57.1,21.0,30.04,North,355,0.0,4.0,25,0.00,,,0.00,0,weatherlink.com 1.10,2013-10-06 06:24:00,
2013-10-06 00:39:00,57.2,22.0,30.04,North,355,0.0,3.0,25,0.00,,,0.00,0,weatherlink.com 1.10,2013-10-06 06:39:00,
2013-10-06 00:54:00,57.1,21.0,30.04,North,355,2.0,4.0,25,0.00,,,0.00,0,weatherlink.com 1.10,2013-10-06 06:54:00,
2013-10-06 01:10:00,57.2,22.0,30.05,North,355,0.0,2.0,25,0.00,,,0.00,0,weatherlink.com 1.10,2013-10-06 07:10:00,
2013-10-06 01:25:00,57.1,21.0,30.05,North,355,0.0,1.0,25,0.00,,,0.00,0,weatherlink.com 1.10,2013-10-06 07:25:00,
2013-10-06 01:40:00,56.8,22.0,30.05,North,355,0.0,0.0,26,0.00,,,0.00,0,weatherlink.com 1.10,2013-10-06 07:40:00,
2013-10-06 01:55:00,56.6,22.0,30.06,North,355,0.0,0.0,26,0.00,,,0.00,0,weatherlink.com 1.10,2013-10-06 07:55:00,
2013-10-06 02:10:00,56.2,22.0,30.07,North,355,0.0,4.0,26,0.00,,,0.00,0,weatherlink.com 1.10,2013-10-06 08:10:00,
2013-10-06 02:25:00,55.4,23.0,30.06,North,355,0.0,0.0,28,0.00,,,0.00,0,weatherlink.com 1.10,2013-10-06 08:25:00,
2013-10-06 02:40:00,54.4,23.0,30.06,North,355,0.0,0.0,29,0.00,,,0.00,0,weatherlink.com 1.10,2013-10-06 08:40:00,
2013-10-06 02:55:00,53.6,23.0,30.07,North,355,0.0,0.0,30,0.00,,,0.00,0,weatherlink.com 1.10,2013-10-06 08:55:00,
2013-10-06 03:10:00,52.7,23.0,30.07,North,355,0.0,0.0,31,0.00,,,0.00,0,weatherlink.com 1.10,2013-10-06 09:10:00,
2013-10-06 03:25:00,52.0,23.0,30.07,North,355,0.0,0.0,32,0.00,,,0.00,0,weatherlink.com 1.10,2013-10-06 09:25:00,
2013-10-06 03:40:00,51.7,23.0,30.07,North,355,0.0,0.0,33,0.00,,,0.00,0,weatherlink.com 1.10,2013-10-06 09:40:00,
2013-10-06 03:55:00,51.7,24.0,30.07,North,355,0.0,2.0,34,0.00,,,0.00,0,weatherlink.com 1.10,2013-10-06 09:55:00,
2013-10-06 04:10:00,51.7,25.0,30.08,North,355,0.0,0.0,35,0.00,,,0.00,0,weatherlink.com 1.10,2013-10-06 10:10:00,
2013-10-06 04:25:00,51.4,25.0,30.08,North,355,0.0,0.0,36,0.00,,,0.00,0,weatherlink.com 1.10,2013-10-06 10:25:00,
2013-10-06 04:40:00,52.0,24.0,30.08,North,355,2.0,5.0,33,0.00,,,0.00,0,weatherlink.com 1.10,2013-10-06 10:40:00,
2013-10-06 04:55:00,51.9,24.0,30.08,North,355,0.0,2.0,34,0.00,,,0.00,0,weatherlink.com 1.10,2013-10-06 10:55:00,
2013-10-06 05:10:00,51.0,24.0,30.09,North,355,0.0,2.0,35,0.00,,,0.00,0,weatherlink.com 1.10,2013-10-06 11:10:00,
2013-10-06 05:25:00,49.9,24.0,30.09,North,355,1.0,2.0,37,0.00,,,0.00,0,weatherlink.com 1.10,2013-10-06 11:25:00,
2013-10-06 05:40:00,49.2,24.0,30.09,North,355,0.0,0.0,38,0.00,,,0.00,0,weatherlink.com 1.10,2013-10-06 11:40:00,
2013-10-06 05:55:00,48.5,25.0,30.10,North,355,0.0,1.0,40,0.00,,,0.00,0,weatherlink.com 1.10,2013-10-06 11:55:00,
2013-10-06 06:10:00,48.0,25.0,30.10,North,355,0.0,4.0,41,0.00,,,0.00,0,weatherlink.com 1.10,2013-10-06 12:10:00,
2013-10-06 06:25:00,47.7,26.0,30.10,North,355,0.0,2.0,43,0.00,,,0.00,0,weatherlink.com 1.10,2013-10-06 12:25:00,
2013-10-06 06:40:00,47.8,27.0,30.10,North,355,0.0,3.0,44,0.00,,,0.00,0,weatherlink.com 1.10,2013-10-06 12:40:00,
2013-10-06 06:55:00,47.9,27.0,30.11,North,355,0.0,4.0,44,0.00,,,0.00,0,weatherlink.com 1.10,2013-10-06 12:55:00,
2013-10-06 07:10:00,48.7,26.0,30.11,North,355,0.0,4.0,42,0.00,,,0.00,7,weatherlink.com 1.10,2013-10-06 13:10:00,
2013-10-06 07:25:00,49.5,25.0,30.11,North,355,4.0,6.0,38,0.00,,,0.00,14,weatherlink.com 1.10,2013-10-06 13:25:00,
2013-10-06 07:41:00,50.9,25.0,30.12,North,355,0.0,4.0,36,0.00,,,0.00,49,weatherlink.com 1.10,2013-10-06 13:41:00,
2013-10-06 07:56:00,52.4,25.0,30.13,North,355,0.0,4.0,34,0.00,,,0.00,104,weatherlink.com 1.10,2013-10-06 13:56:00,
2013-10-06 08:11:00,54.3,24.0,30.14,North,355,1.0,4.0,31,0.00,,,0.00,163,weatherlink.com 1.10,2013-10-06 14:11:00,
2013-10-06 08:26:00,55.4,24.0,30.14,North,355,0.0,7.0,30,0.00,,,0.00,229,weatherlink.com 1.10,2013-10-06 14:26:00,
2013-10-06 08:41:00,56.7,25.0,30.15,North,355,3.0,6.0,29,0.00,,,0.00,285,weatherlink.com 1.10,2013-10-06 14:41:00,
2013-10-06 08:56:00,57.1,25.0,30.15,North,355,3.0,6.0,29,0.00,,,0.00,336,weatherlink.com 1.10,2013-10-06 14:56:00,
2013-10-06 09:11:00,58.0,26.0,30.15,North,355,4.0,7.0,29,0.00,,,0.00,385,weatherlink.com 1.10,2013-10-06 15:11:00,
2013-10-06 09:26:00,58.8,26.0,30.15,North,355,5.0,7.0,28,0.00,,,0.00,434,weatherlink.com 1.10,2013-10-06 15:26:00,
2013-10-06 09:41:00,60.6,26.0,30.15,North,355,0.0,5.0,27,0.00,,,0.00,480,weatherlink.com 1.10,2013-10-06 15:41:00,
2013-10-06 09:56:00,61.9,26.0,30.15,NNW,348,6.0,8.0,26,0.00,,,0.00,524,weatherlink.com 1.10,2013-10-06 15:56:00,
2013-10-06 10:11:00,62.5,26.0,30.16,North,360,1.0,6.0,25,0.00,,,0.00,568,weatherlink.com 1.10,2013-10-06 16:11:00,
2013-10-06 10:26:00,64.5,28.0,30.16,North,360,4.0,6.0,25,0.00,,,0.00,603,weatherlink.com 1.10,2013-10-06 16:26:00,
2013-10-06 10:41:00,65.4,29.0,30.16,North,5,1.0,10.0,25,0.00,,,0.00,640,weatherlink.com 1.10,2013-10-06 16:41:00,
2013-10-06 10:56:00,67.1,29.0,30.15,North,5,0.0,6.0,24,0.00,,,0.00,675,weatherlink.com 1.10,2013-10-06 16:56:00,
2013-10-06 11:12:00,68.0,29.0,30.15,North,360,0.0,5.0,23,0.00,,,0.00,703,weatherlink.com 1.10,2013-10-06 17:12:00,
2013-10-06 11:27:00,67.0,29.0,30.15,North,5,4.0,6.0,24,0.00,,,0.00,728,weatherlink.com 1.10,2013-10-06 17:27:00,
2013-10-06 11:42:00,69.9,30.0,30.14,North,5,0.0,5.0,23,0.00,,,0.00,752,weatherlink.com 1.10,2013-10-06 17:42:00,
2013-10-06 11:57:00,69.0,30.0,30.13,North,5,3.0,5.0,23,0.00,,,0.00,770,weatherlink.com 1.10,2013-10-06 17:57:00,
2013-10-06 12:12:00,71.4,29.0,30.13,North,11,4.0,9.0,21,0.00,,,0.00,780,weatherlink.com 1.10,2013-10-06 18:12:00,
2013-10-06 12:27:00,71.6,30.0,30.12,North,10,0.0,6.0,21,0.00,,,0.00,793,weatherlink.com 1.10,2013-10-06 18:27:00,
2013-10-06 12:42:00,72.2,29.0,30.12,North,10,4.0,6.0,20,0.00,,,0.00,798,weatherlink.com 1.10,2013-10-06 18:42:00,
2013-10-06 12:57:00,72.7,30.0,30.11,North,10,0.0,3.0,21,0.00,,,0.00,802,weatherlink.com 1.10,2013-10-06 18:57:00,
2013-10-06 13:12:00,72.4,29.0,30.10,North,360,1.0,5.0,20,0.00,,,0.00,795,weatherlink.com 1.10,2013-10-06 19:12:00,
2013-10-06 13:27:00,73.0,30.0,30.09,North,5,0.0,7.0,20,0.00,,,0.00,791,weatherlink.com 1.10,2013-10-06 19:27:00,
2013-10-06 13:42:00,72.6,29.0,30.08,North,5,0.0,3.0,20,0.00,,,0.00,782,weatherlink.com 1.10,2013-10-06 19:42:00,
2013-10-06 13:57:00,73.5,29.0,30.07,North,5,0.0,6.0,19,0.00,,,0.00,766,weatherlink.com 1.10,2013-10-06 19:57:00,
2013-10-06 14:12:00,74.4,29.0,30.06,North,5,0.0,2.0,19,0.00,,,0.00,751,weatherlink.com 1.10,2013-10-06 20:12:00,
2013-10-06 14:27:00,75.9,31.0,30.06,North,5,0.0,3.0,19,0.00,,,0.00,728,weatherlink.com 1.10,2013-10-06 20:27:00,
2013-10-06 14:42:00,75.1,30.0,30.05,North,5,3.0,6.0,19,0.00,,,0.00,698,weatherlink.com 1.10,2013-10-06 20:42:00,
2013-10-06 14:57:00,74.4,29.0,30.05,North,360,0.0,3.0,19,0.00,,,0.00,675,weatherlink.com 1.10,2013-10-06 20:57:00,
2013-10-06 15:12:00,76.2,30.0,30.05,North,5,0.0,8.0,18,0.00,,,0.00,640,weatherlink.com 1.10,2013-10-06 21:12:00,
2013-10-06 15:27:00,75.5,29.0,30.05,North,360,2.0,6.0,18,0.00,,,0.00,601,weatherlink.com 1.10,2013-10-06 21:27:00,
2013-10-06 15:42:00,75.3,29.0,30.04,North,5,2.0,4.0,18,0.00,,,0.00,561,weatherlink.com 1.10,2013-10-06 21:42:00,
2013-10-06 15:57:00,75.2,30.0,30.03,North,5,0.0,4.0,19,0.00,,,0.00,520,weatherlink.com 1.10,2013-10-06 21:57:00,
2013-10-06 16:12:00,76.4,31.0,30.03,North,5,0.0,6.0,19,0.00,,,0.00,475,weatherlink.com 1.10,2013-10-06 22:12:00,
2013-10-06 16:27:00,76.6,31.0,30.03,North,5,0.0,6.0,19,0.00,,,0.00,425,weatherlink.com 1.10,2013-10-06 22:27:00,
2013-10-06 16:42:00,76.5,31.0,30.03,North,5,2.0,5.0,19,0.00,,,0.00,376,weatherlink.com 1.10,2013-10-06 22:42:00,
2013-10-06 16:57:00,76.3,31.0,30.03,North,5,0.0,3.0,19,0.00,,,0.00,325,weatherlink.com 1.10,2013-10-06 22:57:00,
2013-10-06 17:12:00,75.0,31.0,30.03,North,360,0.0,4.0,20,0.00,,,0.00,276,weatherlink.com 1.10,2013-10-06 23:12:00,
2013-10-06 17:27:00,76.5,33.0,30.03,North,5,0.0,0.0,20,0.00,,,0.00,216,weatherlink.com 1.10,2013-10-06 23:27:00,
2013-10-06 17:42:00,75.1,31.0,30.03,North,5,0.0,1.0,20,0.00,,,0.00,149,weatherlink.com 1.10,2013-10-06 23:42:00,
2013-10-06 17:57:00,76.4,32.0,30.03,North,5,0.0,0.0,20,0.00,,,0.00,26,weatherlink.com 1.10,2013-10-06 23:57:00,
2013-10-06 18:12:00,75.3,32.0,30.03,North,5,0.0,0.0,20,0.00,,,0.00,18,weatherlink.com 1.10,2013-10-07 00:12:00,
2013-10-06 18:27:00,74.1,33.0,30.03,North,5,0.0,0.0,22,0.00,,,0.00,12,weatherlink.com 1.10,2013-10-07 00:27:00,
2013-10-06 18:42:00,73.0,33.0,30.04,North,5,0.0,0.0,23,0.00,,,0.00,5,weatherlink.com 1.10,2013-10-07 00:42:00,
2013-10-06 18:57:00,71.8,32.0,30.04,North,360,0.0,0.0,23,0.00,,,0.00,0,weatherlink.com 1.10,2013-10-07 00:57:00,
2013-10-06 19:12:00,70.8,32.0,30.04,North,360,0.0,0.0,24,0.00,,,0.00,0,weatherlink.com 1.10,2013-10-07 01:12:00,
2013-10-06 19:27:00,69.8,32.0,30.04,North,5,0.0,0.0,25,0.00,,,0.00,0,weatherlink.com 1.10,2013-10-07 01:27:00,
2013-10-06 19:42:00,69.1,32.0,30.04,North,360,0.0,0.0,25,0.00,,,0.00,0,weatherlink.com 1.10,2013-10-07 01:42:00,
2013-10-06 19:57:00,68.4,32.0,30.05,North,5,0.0,0.0,26,0.00,,,0.00,0,weatherlink.com 1.10,2013-10-07 01:57:00,
2013-10-06 20:12:00,67.7,32.0,30.05,North,5,0.0,0.0,27,0.00,,,0.00,0,weatherlink.com 1.10,2013-10-07 02:12:00,
2013-10-06 20:27:00,67.0,32.0,30.05,North,5,0.0,0.0,27,0.00,,,0.00,0,weatherlink.com 1.10,2013-10-07 02:27:00,
2013-10-06 20:42:00,66.6,32.0,30.06,North,360,0.0,0.0,28,0.00,,,0.00,0,weatherlink.com 1.10,2013-10-07 02:42:00,
2013-10-06 20:57:00,66.1,31.0,30.06,North,360,0.0,0.0,27,0.00,,,0.00,0,weatherlink.com 1.10,2013-10-07 02:57:00,
2013-10-06 21:12:00,66.2,31.0,30.06,North,360,0.0,0.0,27,0.00,,,0.00,0,weatherlink.com 1.10,2013-10-07 03:12:00,
2013-10-06 21:27:00,65.6,31.0,30.06,North,360,0.0,0.0,28,0.00,,,0.00,0,weatherlink.com 1.10,2013-10-07 03:27:00,
2013-10-06 21:42:00,65.2,32.0,30.07,North,5,0.0,0.0,29,0.00,,,0.00,0,weatherlink.com 1.10,2013-10-07 03:42:00,
2013-10-06 21:57:00,64.6,32.0,30.07,North,5,0.0,0.0,30,0.00,,,0.00,0,weatherlink.com 1.10,2013-10-07 03:57:00,
2013-10-06 22:12:00,63.9,33.0,30.07,North,5,0.0,0.0,31,0.00,,,0.00,0,weatherlink.com 1.10,2013-10-07 04:12:00,
2013-10-06 22:27:00,63.2,33.0,30.07,North,5,0.0,0.0,32,0.00,,,0.00,0,weatherlink.com 1.10,2013-10-07 04:27:00,
2013-10-06 22:42:00,63.1,32.0,30.07,North,5,0.0,0.0,31,0.00,,,0.00,0,weatherlink.com 1.10,2013-10-07 04:42:00,
2013-10-06 22:57:00,62.9,31.0,30.06,North,360,0.0,0.0,30,0.00,,,0.00,0,weatherlink.com 1.10,2013-10-07 04:57:00,
2013-10-06 23:12:00,62.0,32.0,30.07,North,360,0.0,0.0,33,0.00,,,0.00,0,weatherlink.com 1.10,2013-10-07 05:12:00,
2013-10-06 23:27:00,61.5,32.0,30.07,North,5,0.0,0.0,33,0.00,,,0.00,0,weatherlink.com 1.10,2013-10-07 05:27:00,
2013-10-06 23:42:00,61.2,32.0,30.07,North,5,0.0,0.0,34,0.00,,,0.00,0,weatherlink.com 1.10,2013-10-07 05:42:00,
2013-10-06 23:57:00,61.1,32.0,30.07,North,5,0.0,0.0,33,0.00,,,0.00,0,weatherlink.com 1.10,2013-10-07 05:57:00,